Theta_e
351 356 361 358 360 361 361 361 361 361 360 360 360 360 360 359 360 360 359 359 361 359 357 357 358 359 359 358 357 356 356 354 351 350 351 350 350 353 355 354 354 349 353
355 358 362 360 358 359 360 361 361 361 361 360 360 360 360 359 358 358 358 358 359 358 358 357 357 358 358 358 358 359 359 358 357 355 355 351 349 351 352 356 357 350 355
355 357 359 361 358 357 357 358 359 360 360 359 359 358 358 358 357 357 357 357 357 357 357 357 357 357 357 357 357 358 358 358 359 358 357 350 346 351 353 353 356 356 357
355 354 357 361 360 358 357 358 359 358 358 358 358 357 356 357 356 356 356 356 356 355 356 356 356 357 357 357 356 357 357 357 357 357 351 350 348 351 353 360 358 359 358
353 354 356 361 361 359 358 359 360 360 360 359 358 358 358 357 356 355 356 355 354 354 355 355 355 356 356 356 358 359 358 357 356 354 347 346 344 349 352 357 359 361 359
354 356 361 362 362 361 359 359 361 361 360 360 360 359 358 358 358 358 359 358 357 356 355 355 357 358 356 356 358 359 359 357 357 349 349 349 348 351 352 353 359 360 361
353 354 357 362 362 361 359 358 357 354 352 352 352 352 353 353 352 356 353 351 353 354 354 355 355 355 356 356 356 357 357 355 349 348 349 349 347 350 353 354 357 360 359
353 354 355 361 361 360 358 353 352 350 350 350 350 349 349 350 349 348 349 349 349 350 347 346 347 347 347 348 351 354 356 354 351 346 348 349 350 353 354 357 357 359 360
353 352 351 352 354 356 354 352 350 351 349 348 348 347 347 346 346 345 345 347 346 347 343 343 343 344 343 343 344 346 349 352 344 348 348 349 353 355 355 357 356 358 360
348 348 343 337 336 338 340 352 351 350 349 347 347 344 339 337 338 340 341 343 342 340 340 340 340 340 341 338 340 341 341 337 334 345 348 349 354 354 355 357 358 356 357
340 330 327 324 322 329 336 342 345 344 342 338 337 338 329 325 326 327 337 338 338 336 335 334 334 335 334 330 332 335 334 326 326 331 334 344 347 350 352 354 357 357 356
325 323 321 321 321 323 329 322 325 329 326 325 323 322 321 321 327 327 328 333 332 335 332 331 330 329 327 319 319 326 322 321 325 325 322 336 342 341 345 351 350 356 355
321 323 321 320 320 321 319 318 318 320 324 323 324 320 319 319 320 321 317 318 317 327 319 320 318 317 318 318 318 317 317 317 317 318 320 330 337 338 341 345 346 347 351
322 322 321 321 320 320 319 316 316 320 319 319 319 321 317 316 316 319 316 316 317 317 316 316 314 314 316 317 316 315 315 316 318 317 318 328 333 333 334 338 343 343 344
322 322 321 322 320 319 319 316 314 316 317 317 320 319 318 316 315 318 316 317 316 317 317 314 314 315 315 316 315 314 315 314 315 316 316 328 328 330 334 336 335 337 343
323 323 322 319 320 319 318 317 315 316 316 318 318 317 317 316 315 317 316 317 316 316 315 313 314 312 313 313 313 315 315 316 316 316 319 318 326 329 329 331 333 336 338
323 323 320 317 317 318 318 317 315 316 316 315 314 316 316 314 315 314 313 314 316 315 313 313 313 311 312 312 312 314 314 314 313 314 314 315 319 325 326 330 332 335 338
321 320 321 324 319 317 316 315 315 314 314 314 312 313 315 316 315 312 311 311 313 311 311 311 310 309 309 309 311 312 311 312 312 312 313 314 316 315 323 327 330 334 336
319 319 319 319 318 317 315 314 313 313 314 313 311 310 313 315 316 311 310 310 311 310 309 309 308 307 307 308 309 310 310 310 311 313 313 313 313 317 317 323 329 332 335
319 319 320 320 316 316 314 312 311 312 313 312 310 310 313 313 316 311 309 310 309 308 308 307 306 307 307 308 309 309 308 310 311 311 310 312 314 315 315 320 322 325 335
319 319 320 318 317 317 313 310 309 308 310 311 310 312 312 313 314 310 308 308 308 306 306 306 306 305 306 306 303 305 308 309 308 307 308 311 312 313 318 318 322 327 330
321 321 321 319 319 315 314 313 310 309 310 310 310 310 310 313 312 311 307 306 306 304 305 305 304 306 306 307 305 305 303 304 305 309 310 310 310 313 315 318 323 327 330
321 321 321 319 315 315 314 310 310 309 308 307 307 307 309 312 311 309 308 307 305 303 303 304 304 304 306 309 308 306 302 301 305 308 307 308 309 310 311 320 322 327 328
323 322 319 318 315 314 313 309 307 305 304 305 306 306 306 309 309 309 308 307 305 304 302 305 308 307 307 303 306 311 308 308 302 302 308 306 308 310 310 318 320 323 324
322 319 318 316 313 312 310 309 308 306 305 306 305 304 303 305 306 308 307 306 304 303 303 305 303 307 303 303 304 307 307 306 308 304 301 302 306 308 310 318 318 321 321
318 317 316 314 312 312 313 310 307 305 304 302 302 303 306 306 304 305 306 305 303 302 302 303 302 301 300 300 306 307 306 304 303 304 303 301 304 305 310 318 318 319 319
Wind_Speed
2 3 5 9 12 13 13 13 13 14 13 14 14 14 13 12 11 12 11 9 8 7 7 6 6 6 6 6 6 6 6 6 5 5 3 0 2 4 5 7 8 6 12
8 6 6 10 13 14 14 13 13 13 12 12 12 12 12 11 10 10 9 8 7 7 6 6 5 5 5 6 6 5 5 5 5 5 5 3 3 5 6 8 9 7 11
6 6 7 11 13 13 13 13 12 11 11 11 11 11 10 10 9 9 8 7 7 7 6 7 7 7 8 8 8 8 8 7 7 7 7 2 3 8 10 11 11 10 11
7 4 5 12 13 13 12 11 10 10 9 9 9 9 9 9 8 8 7 6 6 6 7 8 8 9 9 10 11 11 11 11 11 11 5 3 4 8 9 11 12 12 14
7 4 8 12 12 13 12 11 10 9 8 8 8 9 8 8 7 7 6 7 8 9 9 9 10 11 12 12 12 11 11 12 13 11 5 5 4 9 11 10 12 16 16
7 6 10 12 12 12 12 11 9 9 8 8 8 8 8 9 8 8 9 9 11 11 12 12 12 12 13 14 14 14 14 15 15 5 5 6 7 10 14 14 13 16 17
6 4 7 11 11 12 12 11 10 9 10 9 10 10 10 13 14 12 14 15 15 15 15 15 15 14 13 14 15 15 15 17 11 6 6 6 6 12 15 15 14 14 18
9 6 6 11 11 10 11 11 11 12 15 16 16 17 18 15 15 15 15 15 16 16 17 16 16 17 16 16 16 15 15 16 9 7 9 8 11 14 18 16 15 15 18
9 7 5 5 9 11 11 10 10 12 14 15 14 15 15 14 14 14 16 17 17 15 17 17 16 15 15 15 16 17 17 17 8 5 8 7 14 17 19 19 17 16 18
5 5 5 6 6 6 5 9 9 11 13 13 14 14 15 15 16 15 12 15 16 15 15 15 16 15 16 16 15 16 17 16 9 8 6 6 16 20 21 20 21 21 18
6 5 6 6 7 5 5 6 8 11 11 13 12 13 10 5 7 10 12 14 14 15 16 17 17 17 18 16 17 18 16 5 6 6 6 15 18 20 20 19 20 22 21
6 5 5 6 6 4 5 6 6 5 5 5 5 6 5 6 6 6 9 12 13 13 14 15 15 16 12 5 4 10 4 6 4 5 6 19 20 22 21 17 20 18 21
5 4 6 7 6 7 6 4 3 2 2 3 6 6 5 4 4 4 3 3 4 9 4 6 6 4 6 4 4 5 5 6 4 5 9 21 21 23 22 21 18 17 18
8 6 7 8 8 8 5 4 4 4 3 3 4 4 4 4 5 5 4 5 4 4 6 5 4 5 6 5 5 6 6 6 5 6 8 21 20 23 25 23 21 20 20
13 8 8 7 7 7 8 5 5 5 4 5 5 6 5 5 5 4 4 4 4 4 4 5 5 4 6 8 9 10 9 7 7 6 6 17 21 23 23 23 27 24 22
12 9 7 8 7 7 6 7 5 5 5 5 5 4 6 4 4 4 4 5 4 4 5 4 4 5 5 5 7 8 8 8 9 8 7 9 22 20 23 24 26 26 24
11 9 8 8 7 8 9 7 5 5 5 5 4 6 6 4 4 3 3 3 4 5 6 5 5 5 5 5 7 7 8 11 10 11 10 9 9 18 22 22 24 26 26
11 10 8 8 9 8 8 6 5 5 4 4 4 3 4 4 4 3 4 4 4 4 4 4 4 5 5 5 7 7 8 9 12 11 9 8 9 9 13 20 22 24 27
8 10 8 7 7 8 7 6 5 5 4 4 4 4 4 4 3 2 2 4 5 4 4 4 4 3 4 6 7 7 8 9 11 10 11 10 10 10 7 14 22 25 26
6 4 7 4 6 6 5 5 4 4 4 3 3 2 3 3 4 3 3 4 4 4 4 4 5 5 5 7 7 9 7 8 8 9 8 8 9 9 9 9 10 11 24
6 5 3 5 2 4 3 4 3 1 1 1 2 3 4 4 4 3 3 4 4 4 5 6 4 5 6 4 3 6 7 8 10 5 5 9 9 8 8 9 8 9 10
5 2 4 4 3 2 3 2 2 2 2 1 2 4 4 4 4 3 4 4 4 4 6 6 5 4 5 5 4 7 4 4 2 8 9 7 8 5 7 10 12 12 9
4 7 6 6 4 3 4 2 1 2 1 2 2 3 3 5 5 5 5 3 4 3 4 6 5 5 6 5 7 3 4 3 8 5 8 5 6 5 6 8 10 9 8
7 4 1 4 4 4 6 2 2 1 1 2 2 2 5 5 6 6 5 5 5 4 5 5 5 5 6 7 7 1 5 6 4 6 4 4 5 8 6 4 7 8 8
7 4 3 2 4 7 3 4 2 2 2 2 3 6 5 5 6 6 5 5 5 4 5 5 6 8 3 4 6 6 5 4 3 4 6 7 8 3 5 4 5 5 8
4 6 5 3 6 6 5 6 6 4 3 4 5 4 4 3 4 6 6 5 5 5 5 4 5 6 5 4 5 6 5 3 4 3 4 9 8 6 8 4 3 3 5
Wind_Direction
125 167 134 104 92 90 88 85 81 80 77 77 79 78 79 78 78 80 78 72 68 71 65 54 44 39 28 25 18 16 15 15 15 12 14 33 188 195 204 201 185 183 175
142 145 132 110 100 97 95 90 88 88 87 85 84 84 84 83 78 74 68 62 56 45 34 26 15 2 353 346 344 344 343 341 339 336 329 330 301 244 224 217 223 192 192
125 129 125 107 104 101 99 96 93 89 89 90 89 86 83 79 74 71 64 51 39 26 15 3 352 343 336 329 323 318 316 314 312 310 307 309 274 264 236 227 227 204 199
129 120 122 112 108 103 101 98 94 91 87 82 80 79 77 76 70 65 57 46 31 13 359 348 341 334 328 323 319 316 313 310 306 302 299 278 282 286 282 246 231 216 206
110 133 124 114 108 107 104 101 97 92 90 86 82 77 69 64 59 51 40 24 13 2 352 343 336 328 323 320 313 306 302 302 301 301 293 284 276 283 280 266 259 226 213
133 144 127 120 118 117 112 105 99 96 88 76 72 71 65 56 44 37 34 19 6 358 353 346 334 326 322 320 315 310 307 305 307 290 280 279 282 277 282 280 284 223 218
128 124 120 125 121 116 112 105 97 86 79 80 71 61 60 57 45 51 40 35 28 19 10 5 357 348 337 330 326 318 311 312 310 291 283 269 264 274 283 282 280 240 227
137 140 138 131 123 120 117 112 101 85 82 78 75 69 68 63 58 52 44 36 35 33 38 30 24 21 17 7 355 341 328 326 318 288 287 285 275 273 282 277 268 258 233
140 136 132 126 129 131 117 106 88 82 84 80 77 71 68 67 58 53 40 36 34 40 31 24 20 19 15 7 2 358 350 342 331 297 291 290 285 284 286 281 273 255 243
107 94 94 70 67 77 84 97 87 82 83 83 77 73 64 54 51 45 41 35 37 35 27 22 17 12 6 3 2 359 2 353 341 322 310 295 294 300 303 292 282 275 257
105 94 99 88 73 92 90 71 66 75 73 71 66 65 52 40 38 39 32 29 26 22 17 12 10 7 4 356 354 356 357 343 337 341 333 320 320 317 316 307 283 279 274
136 116 111 106 110 80 81 71 76 69 53 55 62 60 53 42 29 32 23 22 12 10 6 0 1 2 359 340 338 352 338 330 324 327 322 325 321 321 320 323 331 285 275
128 109 128 116 109 99 81 73 66 61 55 50 45 42 38 35 9 9 7 358 355 355 356 353 345 351 339 339 338 327 328 326 314 318 319 321 317 321 317 319 321 318 310
123 121 134 124 120 116 116 97 80 75 47 41 37 43 34 16 4 354 356 346 349 351 346 349 337 334 332 327 319 307 319 317 310 308 306 310 315 321 315 311 316 316 310
133 150 144 134 125 131 106 105 88 81 66 56 50 36 34 21 5 350 354 348 351 345 344 329 326 328 329 331 326 325 322 309 305 304 301 302 315 310 311 314 310 308 307
145 148 149 124 112 99 96 88 93 81 74 72 61 45 47 48 28 24 5 355 348 335 318 309 308 311 313 309 317 314 311 310 310 297 296 306 301 306 310 307 306 306 305
150 142 123 110 108 102 107 102 97 92 97 104 86 56 61 53 39 26 1 336 309 315 317 322 322 321 319 310 304 307 305 303 303 299 295 290 287 299 299 301 302 303 304
138 138 123 124 115 106 106 110 104 117 118 109 88 75 67 29 33 16 346 330 326 325 317 315 308 309 304 305 302 300 296 298 297 292 287 290 292 290 289 298 301 301 302
134 116 116 109 116 119 113 105 100 93 79 69 49 36 23 356 354 0 333 310 328 326 312 306 303 287 282 289 291 299 296 290 289 293 294 293 287 283 288 294 302 300 295
78 87 104 103 121 111 104 89 59 57 56 51 29 357 332 324 337 341 327 324 322 326 312 309 290 295 277 285 298 296 282 279 284 284 292 288 286 284 295 295 295 291 291
69 82 59 130 142 120 81 91 74 111 356 335 298 310 320 324 341 329 307 311 330 322 300 296 286 300 308 296 299 302 296 273 272 282 280 288 288 296 295 304 301 298 294
112 129 178 160 216 112 105 157 151 185 222 214 283 296 299 328 313 303 307 317 330 325 319 309 318 315 304 314 303 298 306 288 333 305 289 278 283 295 302 311 308 294 297
131 211 201 177 163 153 143 144 129 37 20 340 305 312 311 309 309 319 315 319 318 315 301 296 297 303 306 305 318 288 303 322 325 292 276 277 287 304 304 306 316 312 318
211 308 255 108 160 196 200 186 199 151 248 291 294 276 302 313 322 321 318 327 319 309 302 293 307 301 331 319 319 280 278 285 312 305 313 288 316 307 302 311 323 334 327
19 347 1 240 217 227 237 18 34 360 342 300 295 308 316 315 321 310 314 317 313 304 296 298 310 324 290 298 298 305 300 280 292 311 301 315 324 318 297 278 313 352 337
14 228 202 238 352 354 12 32 42 38 331 333 322 320 316 307 307 313 307 301 305 299 294 296 299 299 300 287 291 289 299 310 312 310 295 310 319 311 313 312 309 354 5